Weather History for PAOM - October, 2012

Change the Weather History Date:

Tuesday, October 2, 2012

  Actual Average Record
Temperature  
Mean Temperature 40 °F 35 °F  
Max Temperature 41 °F 41 °F 58 °F (1950)
Min Temperature 38 °F 30 °F 13 °F (1992)
Degree Days  
Heating Degree Days 25 30  
Month to date heating degree days 53 59  
Since 1 July heating degree days 1707 1589  
Cooling Degree Days 0    
Month to date cooling degree days 0  
Year to date cooling degree days 0  
Moisture  
Dew Point 39 °F    
Average Humidity 0    
Maximum Humidity 0    
Minimum Humidity 0    
Precipitation  
Precipitation 0.39 in 0.06 in 0.66 in (1960)
Month to date precipitation 0.78 0.13  
Year to date precipitation 17.53 13.03  
Snow  
Snow 0.00 in 0.00 in 1.00 in (1919)
Month to date snowfall 0.2 0.1  
Since 1 July snowfall 0.5 0.7  
Since 1 September snowfall 0.5 0.7  
Snow Depth 0.00 in    
Sea Level Pressure  
Sea Level Pressure 29.69 in    
Wind  
Wind Speed 15 mph (SSE)    
Max Wind Speed 24 mph    
Max Gust Speed 32 mph    
Visibility 7 miles    
Events Rain    
T = Trace of Precipitation, MM = Missing Value Source: NWS Daily Summary

Daily Weather History Graph

Daily Weather History Graph

Search for Another Location

Airport or City:

Trip Planner

Search our weather history database for the weather conditions in past years. The results will help you decide how hot, cold, wet, or windy it might be!

Date:

Astronomy

Oct. 02, 2012 Rise Set
Actual Time 9:16 AM AKDT 8:23 PM AKDT
Civil Twilight 8:27 AM AKDT 9:12 PM AKDT
Nautical Twilight 7:31 AM AKDT 10:08 PM AKDT
Astronomical Twilight 6:29 AM AKDT 11:09 PM AKDT
Moon 8:19 PM AKDT (10/2) 1:16 PM AKDT (10/2)
Length of Visible Light 12h 44m
Length of Day
11h 07m
Waning Gibbous, 93% of the Moon is Illuminated
Oct 2
Waning Gibbous
Oct 7
Last Quarter
Oct 15
New
Oct 21
First Quarter
Oct 29
Full

Hourly Weather History & Observations

Time (AKDT) Temp. Windchill Dew Point Humidity Pressure Visibility Wind Dir Wind Speed Gust Speed Precip Events Conditions
12:40 AM 39.2 °F 29.6 °F 39.2 °F 100% 29.65 in 6.0 mi SSE 19.6 mph 29.9 mph 0.02 in Rain Light Rain
12:49 AM 39.2 °F 29.3 °F 39.2 °F 100% 29.65 in 8.0 mi SSE 20.7 mph - 0.02 in Rain Light Rain
12:53 AM 39.9 °F 30.2 °F 39.0 °F 97% 29.65 in 8.0 mi SSE 20.7 mph 26.5 mph 0.02 in Rain Light Rain
1:53 AM 39.9 °F 30.2 °F 39.0 °F 97% 29.66 in 6.0 mi SSE 20.7 mph 28.8 mph 0.01 in Rain Light Rain
2:00 AM 39.2 °F 29.3 °F 39.2 °F 100% 29.65 in 7.0 mi SSE 20.7 mph - 0.00 in Rain Light Rain
2:51 AM 39.2 °F 29.3 °F 39.2 °F 100% 29.66 in 6.0 mi SSE 20.7 mph - 0.03 in Rain Light Rain
2:53 AM 39.9 °F 30.2 °F 39.0 °F 97% 29.67 in 6.0 mi SSE 20.7 mph - 0.03 in Rain Light Rain
3:53 AM 39.9 °F 30.0 °F 39.0 °F 97% 29.67 in 5.0 mi SSE 21.9 mph - 0.03 in Rain Light Rain
4:53 AM 39.9 °F 30.8 °F 39.0 °F 97% 29.67 in 6.0 mi SSE 18.4 mph 26.5 mph 0.04 in Rain Light Rain
5:07 AM 39.2 °F 29.3 °F 39.2 °F 100% 29.66 in 6.0 mi SSE 20.7 mph - 0.00 in Rain Light Rain
5:53 AM 39.9 °F 30.5 °F 39.0 °F 97% 29.67 in 7.0 mi SSE 19.6 mph 28.8 mph 0.02 in Rain Light Rain
6:23 AM 39.2 °F 29.0 °F 39.2 °F 100% 29.66 in 8.0 mi SSE 21.9 mph 29.9 mph 0.01 in Rain Light Rain
6:53 AM 39.9 °F 30.8 °F 39.0 °F 97% 29.67 in 7.0 mi SSE 18.4 mph - 0.01 in Rain Light Rain
7:53 AM 39.9 °F 30.2 °F 39.9 °F 100% 29.67 in 6.0 mi SSE 20.7 mph - 0.02 in Rain Light Rain
8:21 AM 39.2 °F 29.3 °F 39.2 °F 100% 29.67 in 6.0 mi SSE 20.7 mph - 0.01 in Rain Light Rain
8:53 AM 39.9 °F 30.8 °F 39.0 °F 97% 29.67 in 6.0 mi SSE 18.4 mph - 0.02 in Rain Light Rain
9:05 AM 39.2 °F 29.3 °F 39.2 °F 100% 29.67 in 6.0 mi SSE 20.7 mph 28.8 mph 0.01 in Rain Light Rain
9:27 AM 39.2 °F 29.0 °F 39.2 °F 100% 29.66 in 8.0 mi SSE 21.9 mph 28.8 mph 0.01 in Rain Light Rain
9:53 AM 39.9 °F 30.0 °F 39.0 °F 97% 29.66 in 8.0 mi SSE 21.9 mph 28.8 mph 0.02 in Rain Light Rain
10:53 AM 39.9 °F 29.7 °F 39.0 °F 97% 29.66 in 7.0 mi SSE 23.0 mph - 0.02 in Rain Light Rain
11:53 AM 39.9 °F 30.5 °F 39.0 °F 97% 29.67 in 6.0 mi SSE 19.6 mph 28.8 mph 0.01 in Rain Light Rain
12:39 PM 39.2 °F 30.2 °F 39.2 °F 100% 29.67 in 5.0 mi SSE 17.3 mph - 0.02 in Rain Light Rain
12:53 PM 39.9 °F 30.8 °F 39.0 °F 97% 29.68 in 6.0 mi SSE 18.4 mph - 0.03 in Rain Light Rain
1:23 PM 39.2 °F 29.8 °F 39.2 °F 100% 29.67 in 6.0 mi SSE 18.4 mph - 0.01 in Rain Light Rain
1:48 PM 41.0 °F 32.8 °F 39.2 °F 93% 29.68 in 7.0 mi SSE 16.1 mph - 0.02 in Rain Light Rain
1:53 PM 41.0 °F 32.5 °F 39.0 °F 93% 29.68 in 7.0 mi SSE 17.3 mph - 0.02 in Rain Light Rain
2:53 PM 39.9 °F 31.4 °F 39.0 °F 97% 29.67 in 7.0 mi SSE 16.1 mph - 0.03 in Rain Light Rain
3:17 PM 39.2 °F 30.5 °F 39.2 °F 100% 29.67 in 7.0 mi SSE 16.1 mph - 0.01 in Rain Light Rain
3:30 PM 39.2 °F 29.8 °F 39.2 °F 100% 29.67 in 7.0 mi SSE 18.4 mph - 0.02 in Rain Light Rain
3:37 PM 39.2 °F 30.2 °F 39.2 °F 100% 29.67 in 7.0 mi SSE 17.3 mph - 0.02 in Rain Light Rain
3:53 PM 39.9 °F 32.9 °F 39.0 °F 97% 29.67 in 5.0 mi South 11.5 mph - 0.03 in Rain Light Rain
4:01 PM 39.2 °F 29.6 °F 39.2 °F 100% 29.68 in 5.0 mi SSE 19.6 mph - 0.01 in Rain Light Rain
4:53 PM 39.9 °F 31.8 °F 39.0 °F 97% 29.68 in 7.0 mi SSE 15.0 mph - 0.03 in Rain Light Rain
5:53 PM 39.9 °F 32.1 °F 39.0 °F 97% 29.69 in 10.0 mi SSE 13.8 mph - 0.02 in Rain Light Rain
6:53 PM 39.9 °F 33.4 °F 39.0 °F 97% 29.70 in 10.0 mi South 10.4 mph - 0.00 in   Overcast
7:15 PM 39.2 °F 32.0 °F 39.2 °F 100% 29.70 in 10.0 mi SSE 11.5 mph - N/A   Overcast
7:53 PM 39.9 °F 33.9 °F 39.0 °F 97% 29.71 in 10.0 mi South 9.2 mph - N/A   Overcast
8:44 PM 39.2 °F 33.6 °F 39.2 °F 100% 29.71 in 10.0 mi South 8.1 mph - N/A   Overcast
8:53 PM 39.9 °F 33.9 °F 39.9 °F 100% 29.71 in 10.0 mi South 9.2 mph - N/A   Overcast
9:20 PM 39.2 °F 33.6 °F 39.2 °F 100% 29.73 in 9.0 mi South 8.1 mph - N/A   Overcast
9:46 PM 39.2 °F 33.6 °F 39.2 °F 100% 29.73 in 5.0 mi South 8.1 mph - N/A   Overcast
9:53 PM 39.9 °F 34.5 °F 39.0 °F 97% 29.73 in 3.0 mi SSW 8.1 mph - N/A   Overcast
10:04 PM 39.2 °F 33.6 °F 39.2 °F 100% 29.73 in 0.8 mi SSW 8.1 mph - N/A   Overcast
10:29 PM 39.2 °F 34.2 °F 39.2 °F 100% 29.74 in 1.5 mi SSW 6.9 mph - N/A   Overcast
10:51 PM 37.4 °F 33.8 °F 37.4 °F 100% 29.74 in 2.0 mi SSW 4.6 mph - N/A   Overcast
10:53 PM 37.9 °F 34.4 °F 37.9 °F 100% 29.74 in 2.0 mi South 4.6 mph - N/A   Overcast
11:14 PM 37.4 °F - 37.4 °F 100% 29.75 in 10.0 mi Calm Calm - N/A   Overcast
11:45 PM 37.4 °F - 37.4 °F 100% 29.76 in 10.0 mi Calm Calm - N/A   Overcast
11:53 PM 37.9 °F - 37.9 °F 100% 29.77 in 10.0 mi Calm Calm - N/A   Overcast